Rome, NY

12:45 PM EDT on June 26, 2017 (GMT -0400)
Griffiss

Weather History for KRME - May, 2014

Change the Weather History Date:

Friday, May 9, 2014

  Actual Average Record
Temperature  
Mean Temperature 66 °F -  
Max Temperature 80 °F 66 °F 87 °F (2015)
Min Temperature 52 °F 41 °F 29 °F (1985)
Cooling Degree Days 1    
Growing Degree Days 16 (Base 50)    
Moisture  
Dew Point 53 °F    
Average Humidity 65    
Maximum Humidity 86    
Minimum Humidity 47    
Precipitation  
Precipitation 0.06 in - - ()
Sea Level Pressure  
Sea Level Pressure 29.99 in    
Wind  
Wind Speed 11 mph (ESE)    
Max Wind Speed 15 mph    
Max Gust Speed 21 mph    
Visibility 10 miles    
Events Rain , Thunderstorm    
Averages and records for this station are not official NWS values.
T = Trace of Precipitation, MM = Missing Value Source: NWS Daily Summary

Daily Weather History Graph

Daily Weather History Graph

Search for Another Location

Airport or City:

Trip Planner

Search our weather history database for the weather conditions in past years. The results will help you decide how hot, cold, wet, or windy it might be!

Date:

Astronomy

May. 09, 2014 Rise Set
Actual Time 5:44 AM EDT 8:12 PM EDT
Civil Twilight 5:12 AM EDT 8:44 PM EDT
Nautical Twilight 4:32 AM EDT 9:24 PM EDT
Astronomical Twilight 3:47 AM EDT 10:09 PM EDT
Moon 2:59 PM EDT (5/9) 2:54 AM EDT (5/9)
Length of Visible Light 15h 31m
Length of Day
14h 27m
Waxing Gibbous, 73% of the Moon is Illuminated
May 9
Waxing Gibbous
May 14
Full
May 21
Last Quarter
May 28
New
Jun 5
First Quarter

Hourly Weather History & Observations

Time (EDT) Temp. Heat Index Dew Point Humidity Pressure Visibility Wind Dir Wind Speed Gust Speed Precip Events Conditions
12:53 AM 62.1 °F - 42.1 °F 48% 30.08 in 10.0 mi ESE 9.2 mph - 0.00 in Rain Light Rain
1:53 AM 61.0 °F - 41.0 °F 48% 30.06 in 10.0 mi ESE 11.5 mph - 0.00 in   Overcast
2:39 AM 60.1 °F - 39.9 °F 47% 30.08 in 10.0 mi ESE 8.1 mph - 0.00 in Thunderstorm Thunderstorm
2:53 AM 55.0 °F - 46.9 °F 74% 30.08 in 5.0 mi NE 6.9 mph - 0.04 in Rain Light Rain
3:53 AM 53.1 °F - 48.0 °F 83% 30.08 in 10.0 mi ESE 6.9 mph - 0.01 in Rain Light Rain
5:53 AM 52.0 °F - 46.9 °F 83% 30.06 in 10.0 mi ESE 11.5 mph - 0.00 in   Clear
6:53 AM 53.1 °F - 48.0 °F 83% 30.07 in 10.0 mi ESE 10.4 mph - N/A   Overcast
8:53 AM 60.1 °F - 53.1 °F 78% 30.06 in 10.0 mi ESE 13.8 mph - N/A   Clear
9:53 AM 64.0 °F - 55.0 °F 73% 30.04 in 10.0 mi SE 12.7 mph - N/A   Clear
10:53 AM 66.9 °F - 55.9 °F 68% 30.03 in 10.0 mi SE 13.8 mph - N/A   Clear
11:53 AM 71.1 °F - 57.9 °F 63% 30.01 in 10.0 mi SE 11.5 mph - N/A   Clear
12:53 PM 73.0 °F - 59.0 °F 61% 29.99 in 10.0 mi ESE 10.4 mph - N/A   Mostly Cloudy
1:53 PM 77.0 °F - 60.1 °F 56% 29.95 in 10.0 mi ESE 13.8 mph 20.7 mph N/A   Mostly Cloudy
2:53 PM 80.1 °F 80.9 °F 60.1 °F 50% 29.94 in 10.0 mi SSE 13.8 mph - N/A   Scattered Clouds
3:53 PM 78.1 °F - 60.1 °F 54% 29.91 in 10.0 mi ESE 13.8 mph - N/A   Clear
4:53 PM 75.9 °F - 57.0 °F 52% 29.90 in 10.0 mi SE 11.5 mph 19.6 mph N/A   Clear
5:53 PM 75.0 °F - 57.9 °F 55% 29.89 in 10.0 mi SE 9.2 mph - N/A   Clear
6:53 PM 72.0 °F - 57.0 °F 59% 29.89 in 10.0 mi ESE 15.0 mph - N/A   Clear
7:53 PM 69.1 °F - 57.0 °F 65% 29.89 in 10.0 mi ESE 12.7 mph - N/A   Clear
8:53 PM 66.9 °F - 55.9 °F 68% 29.88 in 10.0 mi ESE 15.0 mph - N/A   Clear
9:53 PM 64.9 °F - 57.0 °F 75% 29.93 in 10.0 mi SE 9.2 mph - 0.00 in Rain Light Rain
11:53 PM 62.1 °F - 57.9 °F 86% 29.90 in 7.0 mi ESE 11.5 mph - 0.01 in Rain Rain